Location: Bakov nad Jizerou
(50.4784°N, 14.9394°E)
Time: 17:19:10
(UTC+00:00)

Cosmos 2322 - Pass Details

Date: 29 October 2021
Orbit: 841 x 854 km, 71.0° (Epoch: 04 December)

Event Time Altitude Azimuth Distance (km) Brightness Sun altitude
Exits shadow 02:49:20 84° 44° (NE) 859 3.6 -28.5°
Maximum altitude 02:49:23 85° 61° (ENE) 859 3.6 -28.5°
Drops below altitude 10° 02:55:04 10° 150° (SSE) 2,463 6.3 -27.6°
Sets 02:57:29 0° 151° (SSE) 3,392 7.1 -27.2°
